Weather History for KPCZ - January, 2013

Change the Weather History Date:

Sunday, January 20, 2013

  Actual Average Record
Temperature  
Mean Temperature 10 °F -  
Max Temperature 14 °F 27 °F 46 °F (1968)
Min Temperature 5 °F 5 °F -28 °F (1985)
Degree Days  
Heating Degree Days 56    
Moisture  
Dew Point -5 °F    
Average Humidity 53    
Maximum Humidity 62    
Minimum Humidity 41    
Precipitation  
Precipitation 0.00 in - - ()
Sea Level Pressure  
Sea Level Pressure 30.18 in    
Wind  
Wind Speed 12 mph (WNW)    
Max Wind Speed 18 mph    
Max Gust Speed 30 mph    
Visibility 10 miles    
Events      
Averages and records for this station are not official NWS values.
T = Trace of Precipitation, MM = Missing Value Source: NWS Daily Summary

Daily Weather History Graph

Daily Weather History Graph

Search for Another Location

Airport or City:

Trip Planner

Search our weather history database for the weather conditions in past years. The results will help you decide how hot, cold, wet, or windy it might be!

Date:

Astronomy

Jan. 20, 2013 Rise Set
Actual Time 7:25 AM CST 4:49 PM CST
Civil Twilight 6:53 AM CST 5:21 PM CST
Nautical Twilight 6:17 AM CST 5:57 PM CST
Astronomical Twilight 5:43 AM CST 6:31 PM CST
Moon 11:51 AM CST (1/20) 1:56 AM CST (1/20)
Length of Visible Light 10h 28m
Length of Day
9h 24m
Waxing Gibbous, 66% of the Moon is Illuminated
Jan 20
Waxing Gibbous
Jan 26
Full
Feb 3
Last Quarter
Feb 10
New
Feb 17
First Quarter

Hourly Weather History & Observations

Time (CST) Temp. Windchill Dew Point Humidity Pressure Visibility Wind Dir Wind Speed Gust Speed Precip Events Conditions
12:15 AM 10.4 °F -6.6 °F -0.4 °F 62% 29.94 in 10.0 mi WNW 16.1 mph 28.8 mph N/A   Mostly Cloudy
12:35 AM 10.4 °F -6.6 °F -4.0 °F 52% 29.96 in 10.0 mi WNW 16.1 mph 29.9 mph N/A   Mostly Cloudy
12:55 AM 10.4 °F -7.7 °F -4.0 °F 52% 29.97 in 10.0 mi WNW 18.4 mph 28.8 mph N/A   Scattered Clouds
1:15 AM 10.4 °F -7.2 °F -4.0 °F 52% 29.99 in 10.0 mi WNW 17.3 mph 24.2 mph N/A   Clear
1:35 AM 10.4 °F -6.0 °F -4.0 °F 52% 30.01 in 10.0 mi WNW 15.0 mph 27.6 mph N/A   Clear
1:55 AM 10.4 °F -5.4 °F -4.0 °F 52% 30.03 in 10.0 mi WNW 13.8 mph 26.5 mph N/A   Clear
2:15 AM 10.4 °F -5.4 °F -4.0 °F 52% 30.04 in 10.0 mi WNW 13.8 mph 21.9 mph N/A   Clear
2:35 AM 10.4 °F -5.4 °F -4.0 °F 52% 30.06 in 10.0 mi WNW 13.8 mph 26.5 mph N/A   Clear
2:55 AM 8.6 °F -9.5 °F -4.0 °F 57% 30.08 in 10.0 mi WNW 17.3 mph 24.2 mph N/A   Clear
3:15 AM 8.6 °F -8.3 °F -4.0 °F 57% 30.08 in 10.0 mi WNW 15.0 mph 25.3 mph N/A   Clear
3:35 AM 8.6 °F -7.7 °F -4.0 °F 57% 30.08 in 10.0 mi WNW 13.8 mph 20.7 mph N/A   Clear
3:55 AM 8.6 °F -8.3 °F -4.0 °F 57% 30.09 in 10.0 mi WNW 15.0 mph 24.2 mph N/A   Clear
4:15 AM 8.6 °F -7.7 °F -4.0 °F 57% 30.11 in 10.0 mi WNW 13.8 mph 20.7 mph N/A   Clear
4:35 AM 8.6 °F -5.5 °F -4.0 °F 57% 30.13 in 10.0 mi WNW 10.4 mph 19.6 mph N/A   Clear
4:55 AM 6.8 °F -9.3 °F -5.8 °F 56% 30.14 in 10.0 mi West 12.7 mph 21.9 mph N/A   Clear
5:15 AM 6.8 °F -8.6 °F -5.8 °F 56% 30.15 in 10.0 mi West 11.5 mph 21.9 mph N/A   Clear
5:35 AM 6.8 °F -10.0 °F -5.8 °F 56% 30.16 in 10.0 mi West 13.8 mph 20.7 mph N/A   Clear
5:55 AM 6.8 °F -9.3 °F -5.8 °F 56% 30.18 in 10.0 mi WNW 12.7 mph 19.6 mph N/A   Clear
6:15 AM 5.0 °F -10.8 °F -5.8 °F 61% 30.19 in 10.0 mi WNW 11.5 mph 18.4 mph N/A   Clear
6:35 AM 5.0 °F -10.8 °F -5.8 °F 61% 30.19 in 10.0 mi WNW 11.5 mph 21.9 mph N/A   Clear
6:55 AM 5.0 °F -10.8 °F -5.8 °F 61% 30.20 in 10.0 mi West 11.5 mph 20.7 mph N/A   Clear
7:15 AM 5.0 °F -10.0 °F -5.8 °F 61% 30.21 in 10.0 mi WNW 10.4 mph 17.3 mph N/A   Clear
7:35 AM 5.0 °F -13.0 °F -5.8 °F 61% 30.22 in 10.0 mi WNW 15.0 mph 18.4 mph N/A   Clear
7:55 AM 5.0 °F -9.1 °F -5.8 °F 61% 30.23 in 10.0 mi WNW 9.2 mph 19.6 mph N/A   Clear
8:15 AM 5.0 °F -9.1 °F -5.8 °F 61% 30.23 in 10.0 mi WNW 9.2 mph - N/A   Clear
8:35 AM 5.0 °F -12.3 °F -5.8 °F 61% 30.25 in 10.0 mi WNW 13.8 mph 17.3 mph N/A   Clear
8:55 AM 5.0 °F -11.6 °F -5.8 °F 61% 30.25 in 10.0 mi NW 12.7 mph 19.6 mph N/A   Clear
9:15 AM 6.8 °F -9.3 °F -5.8 °F 56% 30.26 in 10.0 mi WNW 12.7 mph 17.3 mph N/A   Clear
9:35 AM 6.8 °F -6.9 °F -5.8 °F 56% 30.26 in 10.0 mi NW 9.2 mph - N/A   Clear
9:55 AM 8.6 °F -3.7 °F -5.8 °F 52% 30.26 in 10.0 mi WNW 8.1 mph - N/A   Clear
10:15 AM 8.6 °F -3.7 °F -5.8 °F 52% 30.26 in 10.0 mi West 8.1 mph - N/A   Clear
10:35 AM 8.6 °F -3.7 °F -4.0 °F 57% 30.26 in 10.0 mi West 8.1 mph - N/A   Clear
10:55 AM 10.4 °F -2.4 °F -4.0 °F 52% 30.26 in 10.0 mi West 9.2 mph 16.1 mph N/A   Clear
11:15 AM 10.4 °F -3.3 °F -4.0 °F 52% 30.27 in 10.0 mi WNW 10.4 mph - N/A   Clear
11:35 AM 10.4 °F -4.8 °F -4.0 °F 52% 30.26 in 10.0 mi West 12.7 mph - N/A   Clear
11:55 AM 12.2 °F -1.0 °F -5.8 °F 45% 30.25 in 10.0 mi WNW 10.4 mph 18.4 mph N/A   Clear
12:15 PM 12.2 °F -1.0 °F -4.0 °F 48% 30.25 in 10.0 mi West 10.4 mph 20.7 mph N/A   Clear
12:35 PM 12.2 °F -3.7 °F -4.0 °F 48% 30.24 in 10.0 mi WSW 15.0 mph 18.4 mph N/A   Clear
12:55 PM 12.2 °F -1.0 °F -5.8 °F 45% 30.23 in 10.0 mi West 10.4 mph 18.4 mph N/A   Clear
1:15 PM 14.0 °F 2.9 °F -5.8 °F 41% 30.23 in 10.0 mi West 8.1 mph 17.3 mph N/A   Clear
1:55 PM 14.0 °F -0.2 °F -4.0 °F 45% 30.22 in 10.0 mi WNW 12.7 mph - N/A   Scattered Clouds
2:15 PM 14.0 °F -0.8 °F -4.0 °F 45% 30.22 in 10.0 mi West 13.8 mph 17.3 mph N/A   Clear
2:35 PM 14.0 °F 0.5 °F -4.0 °F 45% 30.22 in 10.0 mi West 11.5 mph 20.7 mph N/A   Clear
2:55 PM 14.0 °F -0.2 °F -4.0 °F 45% 30.21 in 10.0 mi WNW 12.7 mph 18.4 mph N/A   Clear
3:15 PM 14.0 °F 0.5 °F -4.0 °F 45% 30.21 in 10.0 mi West 11.5 mph - N/A   Clear
3:35 PM 14.0 °F 2.0 °F -5.8 °F 41% 30.21 in 10.0 mi WNW 9.2 mph 18.4 mph N/A   Clear
3:55 PM 14.0 °F 0.5 °F -4.0 °F 45% 30.21 in 10.0 mi West 11.5 mph 18.4 mph N/A   Clear
4:15 PM 14.0 °F -0.2 °F -4.0 °F 45% 30.21 in 10.0 mi West 12.7 mph - N/A   Clear
4:35 PM 12.2 °F -2.5 °F -5.8 °F 45% 30.21 in 10.0 mi West 12.7 mph 18.4 mph N/A   Clear
4:55 PM 12.2 °F -2.5 °F -5.8 °F 45% 30.21 in 10.0 mi West 12.7 mph - N/A   Clear
5:15 PM 12.2 °F 4.3 °F -5.8 °F 45% 30.21 in 10.0 mi WNW 4.6 mph - N/A   Clear
5:35 PM 12.2 °F 4.3 °F -5.8 °F 45% 30.21 in 10.0 mi WNW 4.6 mph - N/A   Scattered Clouds
5:55 PM 10.4 °F 4.0 °F -5.8 °F 48% 30.20 in 10.0 mi West 3.5 mph - N/A   Scattered Clouds
6:15 PM 10.4 °F 0.8 °F -5.8 °F 48% 30.21 in 10.0 mi WNW 5.8 mph - N/A   Scattered Clouds
6:35 PM 10.4 °F 4.0 °F -5.8 °F 48% 30.21 in 10.0 mi WNW 3.5 mph - N/A   Mostly Cloudy
6:55 PM 10.4 °F 2.2 °F -4.0 °F 52% 30.21 in 10.0 mi WNW 4.6 mph - N/A   Overcast
7:15 PM 10.4 °F 2.2 °F -4.0 °F 52% 30.20 in 10.0 mi WNW 4.6 mph - N/A   Overcast
7:35 PM 10.4 °F 2.2 °F -4.0 °F 52% 30.20 in 10.0 mi West 4.6 mph - N/A   Scattered Clouds
7:55 PM 8.6 °F 2.0 °F -4.0 °F 57% 30.20 in 10.0 mi West 3.5 mph - N/A   Clear
8:15 PM 8.6 °F 0.1 °F -4.0 °F 57% 30.20 in 10.0 mi West 4.6 mph - N/A   Scattered Clouds
8:35 PM 8.6 °F -2.6 °F -4.0 °F 57% 30.20 in 10.0 mi WNW 6.9 mph - N/A   Overcast
8:55 PM 8.6 °F -4.7 °F -4.0 °F 57% 30.19 in 10.0 mi NW 9.2 mph - N/A   Overcast
9:15 PM 8.6 °F -4.7 °F -5.8 °F 52% 30.18 in 10.0 mi WNW 9.2 mph - N/A   Overcast
9:35 PM 8.6 °F -3.7 °F -5.8 °F 52% 30.18 in 10.0 mi WNW 8.1 mph 17.3 mph N/A   Overcast
9:55 PM 8.6 °F -3.7 °F -5.8 °F 52% 30.18 in 10.0 mi WNW 8.1 mph - N/A   Overcast
10:15 PM 8.6 °F -6.3 °F -4.0 °F 57% 30.17 in 10.0 mi WNW 11.5 mph - N/A   Overcast
10:35 PM 8.6 °F -2.6 °F -4.0 °F 57% 30.16 in 10.0 mi WNW 6.9 mph 16.1 mph N/A   Overcast
10:55 PM 8.6 °F -3.7 °F -4.0 °F 57% 30.16 in 10.0 mi WNW 8.1 mph - N/A   Overcast
11:15 PM 8.6 °F -3.7 °F -4.0 °F 57% 30.16 in 10.0 mi WNW 8.1 mph - N/A   Overcast
11:35 PM 8.6 °F -2.6 °F -5.8 °F 52% 30.16 in 10.0 mi WNW 6.9 mph - N/A   Overcast
11:55 PM 8.6 °F -2.6 °F -5.8 °F 52% 30.15 in 10.0 mi NW 6.9 mph - N/A   Overcast